| time (UTC) | temp F | wind direction | speed knots | gust knots | rain 1hr in | rain 24hr in | rain mn in | humidity % | barometer mb |
| 20260506231827 | 57 | 185 | 2.6 | 3.5 | 0.00 | 0.04 | 0.04 | 99 | 1010.1 |
| 20260506231324 | 57 | 178 | 0.9 | 1.7 | 0.00 | 0.04 | 0.04 | 99 | 1010.2 |
| 20260506230822 | 57 | 132 | 0.0 | 0.9 | 0.00 | 0.04 | 0.04 | 99 | 1010.1 |
| 20260506230318 | 57 | 133 | 0.9 | 0.9 | 0.00 | 0.04 | 0.04 | 99 | 1010.4 |
| 20260506225814 | 57 | 153 | 0.0 | 0.0 | 0.00 | 0.04 | 0.04 | 99 | 1010.3 |
| 20260506225312 | 57 | 178 | 0.9 | 0.9 | 0.07 | 0.04 | 0.04 | 99 | 1010.3 |
| 20260506224809 | 57 | 187 | 7.8 | 8.7 | 0.07 | 0.04 | 0.04 | 99 | 1010.3 |
| 20260506224306 | 57 | 160 | 0.0 | 0.0 | 0.00 | 0.03 | 0.03 | 99 | 1010.3 |
| 20260506223802 | 57 | 191 | 3.5 | 5.2 | 0.00 | 0.03 | 0.03 | 98 | 1010.2 |
| 20260506223257 | 57 | 132 | 0.9 | 0.9 | 0.00 | 0.03 | 0.03 | 98 | 1010.0 |
| 20260506222754 | 57 | 170 | 1.7 | 2.6 | 0.00 | 0.03 | 0.03 | 98 | 1010.0 |
| 20260506222250 | 58 | 181 | 0.0 | 0.0 | 0.00 | 0.03 | 0.03 | 98 | 1010.3 |
| 20260506221748 | 58 | 132 | 0.0 | 0.0 | 0.00 | 0.03 | 0.03 | 98 | 1010.3 |
| 20260506221246 | 58 | 140 | 0.9 | 0.9 | 0.00 | 0.03 | 0.03 | 98 | 1010.2 |
| 20260506220743 | 58 | 158 | 0.0 | 0.0 | 0.00 | 0.03 | 0.03 | 98 | 1010.4 |
| 20260506220238 | 58 | 204 | 1.7 | 2.6 | 0.05 | 0.03 | 0.03 | 98 | 1010.5 |
| 20260506215735 | 58 | 172 | 3.5 | 5.2 | 0.05 | 0.03 | 0.03 | 97 | 1010.7 |
| 20260506215230 | 58 | 215 | 2.6 | 3.5 | 0.00 | 0.02 | 0.02 | 97 | 1010.5 |
| 20260506214727 | 59 | 140 | 1.7 | 2.6 | 0.00 | 0.02 | 0.02 | 96 | 1010.7 |
| 20260506214224 | 59 | 189 | 2.6 | 3.5 | 0.00 | 0.02 | 0.02 | 96 | 1010.5 |
| 20260506213722 | 59 | 166 | 0.9 | 0.9 | 0.07 | 0.02 | 0.02 | 95 | 1010.6 |
| 20260506213220 | 59 | 177 | 3.5 | 5.2 | 0.07 | 0.02 | 0.02 | 94 | 1010.6 |
| 20260506212717 | 60 | 180 | 1.7 | 1.7 | 0.07 | 0.02 | 0.02 | 93 | 1010.7 |
| 20260506212212 | 60 | 164 | 0.0 | 0.9 | 0.00 | 0.01 | 0.01 | 91 | 1010.9 |
| 20260506211708 | 60 | 173 | 3.5 | 5.2 | 0.00 | 0.01 | 0.01 | 91 | 1010.8 |
| 20260506211204 | 60 | 196 | 3.5 | 5.2 | 0.00 | 0.01 | 0.01 | 91 | 1011.0 |
| 20260506210701 | 60 | 183 | 0.0 | 0.0 | 0.00 | 0.01 | 0.01 | 91 | 1010.8 |
| 20260506210159 | 60 | 166 | 0.9 | 0.9 | 0.00 | 0.01 | 0.01 | 92 | 1010.9 |
| 20260506205656 | 60 | 203 | 5.2 | 7.8 | 0.00 | 0.01 | 0.01 | 92 | 1010.8 |
| 20260506205156 | 60 | 185 | 2.6 | 3.5 | 0.00 | 0.01 | 0.01 | 92 | 1011.0 |
| 20260506204654 | 60 | 151 | 2.6 | 3.5 | 0.00 | 0.01 | 0.01 | 92 | 1011.1 |
| 20260506204150 | 60 | 168 | 0.9 | 1.7 | 0.00 | 0.01 | 0.01 | 92 | 1011.2 |
| 20260506203648 | 60 | 137 | 3.5 | 6.1 | 0.00 | 0.01 | 0.01 | 92 | 1011.0 |
| 20260506203145 | 59 | 167 | 0.9 | 1.7 | 0.00 | 0.01 | 0.01 | 92 | 1011.1 |
| 20260506202644 | 59 | 158 | 0.9 | 0.9 | 0.00 | 0.01 | 0.01 | 92 | 1011.1 |
| 20260506202139 | 59 | 178 | 2.6 | 5.2 | 0.00 | 0.01 | 0.01 | 92 | 1011.2 |
| 20260506201636 | 59 | 150 | 0.9 | 0.9 | 0.00 | 0.01 | 0.01 | 93 | 1011.3 |
| 20260506201133 | 59 | 171 | 1.7 | 2.6 | 0.00 | 0.01 | 0.01 | 93 | 1011.2 |
| 20260506200629 | 59 | 225 | 5.2 | 7.0 | 0.00 | 0.01 | 0.01 | 92 | 1011.2 |
| 20260506200126 | 59 | 177 | 5.2 | 7.0 | 0.00 | 0.01 | 0.01 | 93 | 1011.2 |
| 20260506195623 | 60 | 160 | 0.9 | 0.9 | 0.00 | 0.01 | 0.01 | 93 | 1011.5 |
| 20260506195119 | 60 | 170 | 1.7 | 1.7 | 0.00 | 0.01 | 0.01 | 92 | 1011.1 |
| 20260506194617 | 60 | 185 | 6.1 | 7.0 | 0.00 | 0.01 | 0.01 | 91 | 1011.3 |
| 20260506194113 | 60 | 194 | 1.7 | 1.7 | 0.05 | 0.01 | 0.01 | 90 | 1011.2 |
| 20260506193611 | 61 | 140 | 1.7 | 2.6 | 0.05 | 0.01 | 0.01 | 89 | 1011.5 |
| 20260506193108 | 61 | 178 | 5.2 | 7.0 | 0.00 | 0.00 | 0.00 | 86 | 1011.5 |
| 20260506192605 | 62 | 171 | 2.6 | 2.6 | 0.00 | 0.00 | 0.00 | 86 | 1011.4 |
| 20260506192100 | 62 | 184 | 1.7 | 2.6 | 0.00 | 0.00 | 0.00 | 84 | 1011.5 |
| 20260506191557 | 62 | 210 | 1.7 | 3.5 | 0.00 | 0.00 | 0.00 | 83 | 1011.4 |
| 20260506191053 | 62 | 189 | 5.2 | 7.0 | 0.00 | 0.00 | 0.00 | 82 | 1011.5 |
| 20260506190550 | 63 | 197 | 4.3 | 6.1 | 0.00 | 0.00 | 0.00 | 80 | 1011.5 |
| 20260506190048 | 63 | 163 | 1.7 | 1.7 | 0.00 | 0.00 | 0.00 | 79 | 1011.7 |
| 20260506185545 | 64 | 178 | 5.2 | 6.1 | 0.00 | 0.00 | 0.00 | 77 | 1011.5 |
| 20260506185041 | 64 | 188 | 6.1 | 7.8 | 0.00 | 0.00 | 0.00 | 76 | 1011.8 |
| 20260506184539 | 64 | 203 | 3.5 | 3.5 | 0.00 | 0.00 | 0.00 | 75 | 1011.8 |
| 20260506184036 | 64 | 170 | 1.7 | 3.5 | 0.00 | 0.00 | 0.00 | 74 | 1011.7 |
| 20260506183531 | 64 | 170 | 1.7 | 3.5 | 0.00 | 0.00 | 0.00 | 74 | 1011.5 |
| 20260506183029 | 65 | 178 | 3.5 | 3.5 | 0.00 | 0.00 | 0.00 | 74 | 1011.6 |
| 20260506182526 | 65 | 144 | 0.9 | 1.7 | 0.00 | 0.00 | 0.00 | 73 | 1011.7 |
| 20260506182023 | 66 | 167 | 2.6 | 2.6 | 0.00 | 0.00 | 0.00 | 72 | 1011.8 |
| 20260506181521 | 66 | 188 | 2.6 | 2.6 | 0.00 | 0.00 | 0.00 | 72 | 1011.9 |
| 20260506181017 | 66 | 139 | 0.0 | 0.9 | 0.00 | 0.00 | 0.00 | 71 | 1011.9 |
| 20260506180514 | 66 | 185 | 1.7 | 2.6 | 0.00 | 0.00 | 0.00 | 70 | 1012.1 |
| 20260506180010 | 66 | 139 | 1.7 | 1.7 | 0.00 | 0.00 | 0.00 | 70 | 1011.9 |
| 20260506175507 | 67 | 137 | 3.5 | 3.5 | 0.00 | 0.00 | 0.00 | 69 | 1012.1 |
| 20260506175003 | 67 | 119 | 1.7 | 2.6 | 0.00 | 0.00 | 0.00 | 69 | 1012.1 |
| 20260506174502 | 67 | 182 | 1.7 | 2.6 | 0.00 | 0.00 | 0.00 | 68 | 1012.0 |
| 20260506173958 | 68 | 163 | 4.3 | 6.1 | 0.00 | 0.00 | 0.00 | 67 | 1012.1 |
| 20260506173456 | 68 | 206 | 7.0 | 13.0 | 0.00 | 0.00 | 0.00 | 67 | 1012.2 |
| 20260506172952 | 68 | 153 | 3.5 | 5.2 | 0.00 | 0.00 | 0.00 | 67 | 1012.2 |
| 20260506172450 | 68 | 100 | 1.7 | 1.7 | 0.00 | 0.00 | 0.00 | 67 | 1012.3 |
| 20260506171946 | 68 | 200 | 7.8 | 12.2 | 0.00 | 0.00 | 0.00 | 66 | 1012.5 |
| 20260506171443 | 68 | 205 | 9.6 | 12.2 | 0.00 | 0.00 | 0.00 | 66 | 1012.4 |
| 20260506170941 | 69 | 165 | 0.9 | 2.6 | 0.00 | 0.00 | 0.00 | 66 | 1012.5 |
| 20260506170438 | 69 | 158 | 3.5 | 5.2 | 0.00 | 0.00 | 0.00 | 66 | 1012.3 |
| 20260506165936 | 69 | 161 | 4.3 | 6.1 | 0.00 | 0.00 | 0.00 | 65 | 1012.3 |
| 20260506165434 | 70 | 162 | 1.7 | 3.5 | 0.00 | 0.00 | 0.00 | 65 | 1012.2 |
| 20260506164930 | 71 | 143 | 0.9 | 1.7 | 0.00 | 0.00 | 0.00 | 62 | 1012.3 |
| 20260506164427 | 71 | 169 | 5.2 | 6.1 | 0.00 | 0.00 | 0.00 | 62 | 1012.4 |
| 20260506163926 | 69 | 176 | 1.7 | 3.5 | 0.00 | 0.00 | 0.00 | 64 | 1012.4 |
| 20260506163425 | 70 | 196 | 1.7 | 2.6 | 0.00 | 0.00 | 0.00 | 63 | 1012.6 |
| 20260506162920 | 70 | 191 | 3.5 | 5.2 | 0.00 | 0.00 | 0.00 | 63 | 1012.6 |
| 20260506162419 | 70 | 226 | 4.3 | 6.1 | 0.00 | 0.00 | 0.00 | 63 | 1012.9 |
| 20260506161916 | 70 | 176 | 6.1 | 7.8 | 0.00 | 0.00 | 0.00 | 63 | 1012.9 |
| 20260506161414 | 70 | 199 | 3.5 | 5.2 | 0.00 | 0.00 | 0.00 | 63 | 1012.7 |
| 20260506160911 | 70 | 194 | 5.2 | 7.0 | 0.00 | 0.00 | 0.00 | 63 | 1012.9 |
| 20260506160408 | 70 | 169 | 0.9 | 0.9 | 0.00 | 0.00 | 0.00 | 66 | 1013.1 |
| 20260506155906 | 71 | 161 | 2.6 | 2.6 | 0.00 | 0.00 | 0.00 | 64 | 1012.9 |
| 20260506155402 | 70 | 182 | 2.6 | 3.5 | 0.00 | 0.00 | 0.00 | 62 | 1013.1 |
| 20260506153519 | 70 | 152 | 2.6 | 3.5 | 0.00 | 0.00 | 0.00 | 64 | 1013.1 |
| 20260506153017 | 71 | 203 | 0.9 | 1.7 | 0.00 | 0.00 | 0.00 | 62 | 1013.2 |
| 20260506152513 | 71 | 168 | 1.7 | 2.6 | 0.00 | 0.00 | 0.00 | 65 | 1013.3 |
| 20260506152012 | 70 | 141 | 3.5 | 7.0 | 0.00 | 0.00 | 0.00 | 65 | 1013.5 |
| 20260506151509 | 71 | 140 | 4.3 | 7.0 | 0.00 | 0.00 | 0.00 | 64 | 1013.5 |
| 20260506151006 | 70 | 238 | 1.7 | 2.6 | 0.00 | 0.00 | 0.00 | 65 | 1013.4 |
| 20260506150502 | 69 | 174 | 4.3 | 6.1 | 0.00 | 0.00 | 0.00 | 66 | 1013.4 |
| 20260506145959 | 68 | 173 | 5.2 | 7.8 | 0.00 | 0.00 | 0.00 | 67 | 1013.7 |
| 20260506145455 | 68 | 189 | 3.5 | 7.8 | 0.00 | 0.00 | 0.00 | 67 | 1013.5 |
| 20260506144953 | 69 | 138 | 0.0 | 0.0 | 0.00 | 0.00 | 0.00 | 67 | 1013.5 |
| 20260506144450 | 68 | 151 | 6.1 | 9.6 | 0.00 | 0.00 | 0.00 | 67 | 1013.4 |
| 20260506143948 | 69 | 177 | 7.8 | 12.2 | 0.00 | 0.00 | 0.00 | 67 | 1013.6 |
| 20260506143444 | 68 | 196 | 4.3 | 6.1 | 0.00 | 0.00 | 0.00 | 66 | 1013.4 |
| 20260506142943 | 68 | 167 | 3.5 | 5.2 | 0.00 | 0.00 | 0.00 | 66 | 1013.3 |
| 20260506142440 | 69 | 196 | 5.2 | 7.8 | 0.00 | 0.00 | 0.00 | 65 | 1013.4 |
| 20260506141939 | 69 | 143 | 3.5 | 5.2 | 0.00 | 0.00 | 0.00 | 66 | 1013.2 |
| 20260506141436 | 69 | 190 | 0.9 | 0.9 | 0.00 | 0.00 | 0.00 | 65 | 1013.2 |
| 20260506140935 | 70 | 119 | 1.7 | 2.6 | 0.00 | 0.00 | 0.00 | 63 | 1013.3 |
| 20260506140431 | 69 | 188 | 0.9 | 1.7 | 0.00 | 0.00 | 0.00 | 65 | 1013.6 |
| 20260506135928 | 69 | 211 | 3.5 | 5.2 | 0.00 | 0.00 | 0.00 | 66 | 1013.6 |
| 20260506135425 | 69 | 152 | 0.9 | 0.9 | 0.00 | 0.00 | 0.00 | 66 | 1013.2 |
| 20260506134921 | 69 | 130 | 0.9 | 0.9 | 0.00 | 0.00 | 0.00 | 67 | 1013.3 |
| 20260506134417 | 68 | 175 | 0.9 | 0.9 | 0.00 | 0.00 | 0.00 | 68 | 1013.5 |
| 20260506133914 | 68 | 207 | 3.5 | 5.2 | 0.00 | 0.00 | 0.00 | 67 | 1013.5 |
| 20260506133411 | 68 | 202 | 1.7 | 1.7 | 0.00 | 0.00 | 0.00 | 68 | 1013.4 |
| 20260506132908 | 68 | 130 | 3.5 | 7.8 | 0.00 | 0.00 | 0.00 | 68 | 1013.7 |
| 20260506132405 | 68 | 158 | 0.9 | 1.7 | 0.00 | 0.00 | 0.00 | 69 | 1014.0 |
| 20260506131903 | 67 | 155 | 0.0 | 0.9 | 0.00 | 0.00 | 0.00 | 71 | 1014.1 |
| 20260506131359 | 67 | 175 | 1.7 | 2.6 | 0.00 | 0.00 | 0.00 | 70 | 1014.1 |
| 20260506130856 | 66 | 199 | 5.2 | 7.0 | 0.00 | 0.00 | 0.00 | 72 | 1014.0 |
| 20260506130352 | 65 | 200 | 3.5 | 5.2 | 0.00 | 0.00 | 0.00 | 73 | 1014.0 |
| 20260506125850 | 65 | 184 | 3.5 | 6.1 | 0.00 | 0.00 | 0.00 | 73 | 1014.2 |
| 20260506125349 | 65 | 172 | 5.2 | 7.8 | 0.00 | 0.00 | 0.00 | 74 | 1014.0 |
| 20260506124847 | 64 | 132 | 0.9 | 0.9 | 0.00 | 0.00 | 0.00 | 76 | 1014.0 |
| 20260506124343 | 64 | 115 | 0.0 | 0.0 | 0.00 | 0.00 | 0.00 | 76 | 1013.9 |
| 20260506123841 | 64 | 167 | 3.5 | 5.2 | 0.00 | 0.00 | 0.00 | 76 | 1013.9 |
| 20260506123339 | 63 | 202 | 3.5 | 7.8 | 0.00 | 0.00 | 0.00 | 78 | 1014.0 |
| 20260506122836 | 63 | 165 | 2.6 | 2.6 | 0.00 | 0.00 | 0.00 | 79 | 1014.0 |
| 20260506122333 | 63 | 191 | 4.3 | 5.2 | 0.00 | 0.00 | 0.00 | 79 | 1014.1 |
| 20260506121831 | 63 | 179 | 2.6 | 3.5 | 0.00 | 0.00 | 0.00 | 79 | 1014.0 |
| 20260506121328 | 63 | 131 | 1.7 | 1.7 | 0.00 | 0.00 | 0.00 | 80 | 1013.8 |
| 20260506120825 | 62 | 178 | 1.7 | 1.7 | 0.00 | 0.00 | 0.00 | 80 | 1013.9 |
| 20260506120323 | 62 | 146 | 0.9 | 1.7 | 0.00 | 0.00 | 0.00 | 81 | 1014.0 |
| 20260506115820 | 62 | 132 | 0.9 | 0.9 | 0.00 | 0.00 | 0.00 | 81 | 1014.2 |
| 20260506115318 | 61 | 164 | 0.9 | 1.7 | 0.00 | 0.00 | 0.00 | 83 | 1014.4 |
| 20260506114816 | 60 | 150 | 0.0 | 0.0 | 0.00 | 0.00 | 0.00 | 85 | 1014.3 |
| 20260506114313 | 60 | 146 | 1.7 | 1.7 | 0.00 | 0.00 | 0.00 | 85 | 1014.4 |
| 20260506113812 | 60 | 179 | 1.7 | 2.6 | 0.00 | 0.00 | 0.00 | 84 | 1014.3 |
| 20260506113309 | 60 | 142 | 1.7 | 1.7 | 0.00 | 0.00 | 0.00 | 84 | 1014.5 |
| 20260506112805 | 61 | 145 | 1.7 | 1.7 | 0.00 | 0.00 | 0.00 | 84 | 1014.6 |
| 20260506112305 | 60 | 139 | 1.7 | 1.7 | 0.00 | 0.00 | 0.00 | 85 | 1014.5 |
| 20260506111800 | 60 | 161 | 0.9 | 0.9 | 0.00 | 0.00 | 0.00 | 85 | 1014.5 |
| 20260506111258 | 61 | 129 | 0.0 | 0.9 | 0.00 | 0.00 | 0.00 | 84 | 1014.4 |
| 20260506110755 | 60 | 151 | 0.0 | 0.0 | 0.00 | 0.00 | 0.00 | 85 | 1014.2 |
| 20260506110252 | 59 | 135 | 0.0 | 0.9 | 0.00 | 0.00 | 0.00 | 87 | 1014.3 |
| 20260506105749 | 58 | 143 | 0.0 | 0.9 | 0.00 | 0.00 | 0.00 | 89 | 1014.2 |
| 20260506105246 | 58 | 136 | 0.0 | 0.0 | 0.00 | 0.00 | 0.00 | 88 | 1014.4 |
| 20260506104743 | 58 | 123 | 0.0 | 0.0 | 0.00 | 0.00 | 0.00 | 89 | 1014.3 |
| 20260506104241 | 58 | 152 | 0.9 | 0.9 | 0.00 | 0.00 | 0.00 | 88 | 1014.3 |
| 20260506103738 | 58 | 135 | 0.0 | 0.9 | 0.00 | 0.00 | 0.00 | 88 | 1014.3 |
| 20260506103235 | 58 | 137 | 0.0 | 0.9 | 0.00 | 0.00 | 0.00 | 88 | 1014.4 |
| 20260506102733 | 58 | 188 | 3.5 | 5.2 | 0.00 | 0.00 | 0.00 | 88 | 1014.4 |
| 20260506102231 | 58 | 144 | 0.0 | 0.0 | 0.00 | 0.00 | 0.00 | 88 | 1014.1 |
| 20260506101727 | 58 | 152 | 1.7 | 2.6 | 0.00 | 0.00 | 0.00 | 88 | 1014.3 |
| 20260506101224 | 58 | 135 | 0.9 | 0.9 | 0.00 | 0.00 | 0.00 | 88 | 1014.3 |
| 20260506100722 | 58 | 138 | 0.9 | 1.7 | 0.00 | 0.00 | 0.00 | 88 | 1014.2 |
| 20260506100220 | 58 | 130 | 0.0 | 0.0 | 0.00 | 0.00 | 0.00 | 87 | 1014.1 |
| 20260506095718 | 58 | 149 | 1.7 | 3.5 | 0.00 | 0.00 | 0.00 | 87 | 1014.2 |
| 20260506095214 | 58 | 147 | 2.6 | 3.5 | 0.00 | 0.00 | 0.00 | 87 | 1014.1 |
| 20260506094712 | 58 | 153 | 0.9 | 0.9 | 0.00 | 0.00 | 0.00 | 87 | 1014.0 |
| 20260506094209 | 58 | 197 | 2.6 | 2.6 | 0.00 | 0.00 | 0.00 | 87 | 1013.9 |
| 20260506093708 | 58 | 183 | 0.9 | 0.9 | 0.00 | 0.00 | 0.00 | 87 | 1014.1 |
| 20260506093204 | 59 | 123 | 0.9 | 0.9 | 0.00 | 0.00 | 0.00 | 86 | 1014.1 |
| 20260506092702 | 59 | 192 | 1.7 | 1.7 | 0.00 | 0.00 | 0.00 | 86 | 1014.2 |
| 20260506092200 | 59 | 141 | 0.9 | 0.9 | 0.00 | 0.00 | 0.00 | 86 | 1013.9 |
| 20260506091657 | 59 | 202 | 3.5 | 6.1 | 0.00 | 0.00 | 0.00 | 86 | 1014.2 |
| 20260506091155 | 59 | 194 | 5.2 | 6.1 | 0.00 | 0.00 | 0.00 | 85 | 1014.2 |
| 20260506090652 | 59 | 152 | 2.6 | 2.6 | 0.00 | 0.00 | 0.00 | 85 | 1014.1 |
| 20260506090149 | 59 | 144 | 0.9 | 0.9 | 0.00 | 0.00 | 0.00 | 85 | 1014.2 |
| 20260506085646 | 59 | 177 | 4.3 | 7.8 | 0.00 | 0.00 | 0.00 | 85 | 1014.0 |
| 20260506085142 | 59 | 190 | 6.1 | 7.8 | 0.00 | 0.00 | 0.00 | 85 | 1014.2 |
| 20260506084638 | 59 | 178 | 3.5 | 5.2 | 0.00 | 0.00 | 0.00 | 84 | 1014.4 |
| 20260506084136 | 60 | 73 | 0.0 | 0.9 | 0.00 | 0.00 | 0.00 | 84 | 1014.3 |
| 20260506083632 | 60 | 176 | 3.5 | 5.2 | 0.00 | 0.00 | 0.00 | 84 | 1014.4 |
| 20260506083130 | 60 | 156 | 1.7 | 2.6 | 0.00 | 0.00 | 0.00 | 83 | 1014.4 |
| 20260506082626 | 60 | 155 | 0.9 | 0.9 | 0.00 | 0.00 | 0.00 | 83 | 1014.2 |
| 20260506082122 | 60 | 196 | 4.3 | 5.2 | 0.00 | 0.00 | 0.00 | 83 | 1014.1 |
| 20260506081621 | 60 | 135 | 1.7 | 2.6 | 0.00 | 0.00 | 0.00 | 82 | 1014.1 |
| 20260506081118 | 60 | 219 | 2.6 | 3.5 | 0.00 | 0.00 | 0.00 | 82 | 1014.5 |
| 20260506080615 | 60 | 178 | 3.5 | 5.2 | 0.00 | 0.00 | 0.00 | 82 | 1014.2 |
| 20260506080112 | 60 | 148 | 2.6 | 3.5 | 0.00 | 0.00 | 0.00 | 82 | 1014.2 |
| 20260506073055 | 61 | 202 | 7.0 | 11.3 | 0.00 | 0.00 | 0.00 | 80 | 1014.1 |
| 20260506072552 | 61 | 133 | 1.7 | 1.7 | 0.00 | 0.00 | 0.00 | 80 | 1014.2 |
| 20260506072050 | 61 | 129 | 0.9 | 1.7 | 0.00 | 0.00 | 0.00 | 80 | 1014.1 |
| 20260506071548 | 61 | 148 | 0.9 | 0.9 | 0.00 | 0.00 | 0.00 | 80 | 1014.1 |
| 20260506071045 | 61 | 180 | 1.7 | 1.7 | 0.00 | 0.00 | 0.00 | 80 | 1014.2 |
| 20260506070542 | 60 | 158 | 1.7 | 3.5 | 0.00 | 0.00 | 0.00 | 81 | 1014.1 |
| 20260506062016 | 61 | 198 | 1.7 | 1.7 | 0.00 | 0.00 | 0.00 | 79 | 1014.0 |
| 20260506061512 | 61 | 202 | 1.7 | 1.7 | 0.00 | 0.00 | 0.00 | 79 | 1013.9 |
| 20260506061010 | 61 | 193 | 1.7 | 2.6 | 0.00 | 0.00 | 0.00 | 78 | 1014.0 |
| 20260506060508 | 61 | 178 | 2.6 | 2.6 | 0.00 | 0.00 | 0.00 | 78 | 1014.0 |
| 20260506050937 | 62 | 154 | 1.7 | 1.7 | 0.00 | 0.00 | 0.00 | 74 | 1014.6 |
| 20260506050435 | 62 | 140 | 0.0 | 0.0 | 0.00 | 0.00 | 0.00 | 73 | 1014.8 |
| 20260506044925 | 62 | 182 | 3.5 | 6.1 | 0.00 | 0.00 | 0.00 | 72 | 1014.7 |
| 20260506044423 | 62 | 143 | 0.9 | 0.9 | 0.00 | 0.00 | 0.00 | 72 | 1014.6 |
| 20260506043920 | 62 | 201 | 1.7 | 2.6 | 0.00 | 0.00 | 0.00 | 72 | 1014.6 |
| 20260506043417 | 62 | 110 | 0.0 | 0.0 | 0.00 | 0.00 | 0.00 | 72 | 1014.7 |
| 20260506042915 | 62 | 105 | 0.9 | 0.9 | 0.00 | 0.00 | 0.00 | 72 | 1014.7 |
| 20260506042414 | 62 | 168 | 2.6 | 3.5 | 0.00 | 0.00 | 0.00 | 71 | 1014.7 |
| 20260506041912 | 63 | 148 | 3.5 | 5.2 | 0.00 | 0.00 | 0.00 | 71 | 1014.6 |
| 20260506041409 | 63 | 193 | 1.7 | 2.6 | 0.00 | 0.00 | 0.00 | 70 | 1014.8 |
| 20260506040906 | 62 | 206 | 2.6 | 7.0 | 0.00 | 0.00 | 0.00 | 70 | 1014.7 |
| 20260506040404 | 62 | 140 | 1.7 | 2.6 | 0.00 | 0.00 | 0.00 | 70 | 1014.6 |
| 20260506035859 | 62 | 161 | 0.9 | 1.7 | 0.00 | 0.00 | 0.00 | 70 | 1014.5 |
| 20260506035357 | 62 | 130 | 0.9 | 1.7 | 0.00 | 0.00 | 0.00 | 69 | 1014.7 |
| 20260506034854 | 62 | 188 | 3.5 | 5.2 | 0.00 | 0.00 | 0.00 | 69 | 1014.7 |
| 20260506034351 | 63 | 130 | 0.9 | 1.7 | 0.00 | 0.00 | 0.00 | 69 | 1014.6 |
| 20260506033848 | 63 | 180 | 0.9 | 1.7 | 0.00 | 0.00 | 0.00 | 69 | 1014.5 |
| 20260506033345 | 63 | 180 | 4.3 | 5.2 | 0.00 | 0.00 | 0.00 | 68 | 1014.7 |
| 20260506032842 | 63 | 182 | 4.3 | 6.1 | 0.00 | 0.00 | 0.00 | 68 | 1014.4 |
| 20260506032339 | 63 | 163 | 1.7 | 2.6 | 0.00 | 0.00 | 0.00 | 67 | 1014.7 |
| 20260506031836 | 63 | 176 | 3.5 | 5.2 | 0.00 | 0.00 | 0.00 | 68 | 1014.5 |
| 20260506031333 | 63 | 243 | 1.7 | 1.7 | 0.00 | 0.00 | 0.00 | 67 | 1014.5 |
| 20260506030831 | 63 | 203 | 6.1 | 8.7 | 0.00 | 0.00 | 0.00 | 67 | 1014.4 |
| 20260506030329 | 63 | 203 | 3.5 | 5.2 | 0.00 | 0.00 | 0.00 | 67 | 1014.2 |
| 20260506025825 | 63 | 157 | 0.9 | 1.7 | 0.00 | 0.00 | 0.00 | 66 | 1014.3 |
| 20260506025321 | 63 | 79 | 0.9 | 0.9 | 0.00 | 0.00 | 0.00 | 66 | 1014.3 |
| 20260506024819 | 63 | 176 | 1.7 | 2.6 | 0.00 | 0.00 | 0.00 | 66 | 1014.4 |
| 20260506024315 | 63 | 155 | 2.6 | 2.6 | 0.00 | 0.00 | 0.00 | 67 | 1014.5 |
| 20260506023811 | 63 | 182 | 3.5 | 6.1 | 0.00 | 0.00 | 0.00 | 67 | 1014.4 |
| 20260506023309 | 63 | 145 | 0.9 | 0.9 | 0.00 | 0.00 | 0.00 | 67 | 1014.3 |
| 20260506022805 | 63 | 169 | 0.9 | 0.9 | 0.00 | 0.00 | 0.00 | 67 | 1014.4 |
| 20260506022305 | 63 | 156 | 1.7 | 2.6 | 0.00 | 0.00 | 0.00 | 67 | 1014.5 |
| 20260506021801 | 63 | 149 | 0.0 | 0.9 | 0.00 | 0.00 | 0.00 | 67 | 1014.4 |
| 20260506021258 | 63 | 178 | 0.9 | 1.7 | 0.00 | 0.00 | 0.00 | 67 | 1014.3 |
| 20260506020754 | 63 | 152 | 2.6 | 3.5 | 0.00 | 0.00 | 0.00 | 66 | 1014.3 |
| 20260506020252 | 63 | 152 | 0.9 | 0.9 | 0.00 | 0.00 | 0.00 | 66 | 1014.3 |
| 20260506015750 | 63 | 190 | 3.5 | 5.2 | 0.00 | 0.00 | 0.00 | 67 | 1014.2 |
| 20260506015247 | 63 | 168 | 0.9 | 0.9 | 0.00 | 0.00 | 0.00 | 67 | 1014.3 |
| 20260506014743 | 63 | 169 | 0.9 | 0.9 | 0.00 | 0.00 | 0.00 | 67 | 1014.4 |
| 20260506014240 | 62 | 134 | 0.9 | 1.7 | 0.00 | 0.00 | 0.00 | 68 | 1014.3 |
| 20260506013737 | 62 | 123 | 2.6 | 5.2 | 0.00 | 0.00 | 0.00 | 68 | 1014.3 |
| 20260506013235 | 62 | 165 | 0.9 | 1.7 | 0.00 | 0.00 | 0.00 | 68 | 1014.2 |
| 20260506012731 | 62 | 190 | 3.5 | 5.2 | 0.00 | 0.00 | 0.00 | 67 | 1014.2 |
| 20260506012228 | 62 | 180 | 2.6 | 5.2 | 0.00 | 0.00 | 0.00 | 67 | 1014.1 |
| 20260506011725 | 63 | 121 | 0.9 | 1.7 | 0.00 | 0.00 | 0.00 | 66 | 1014.1 |
| 20260506011221 | 62 | 170 | 2.6 | 3.5 | 0.00 | 0.00 | 0.00 | 66 | 1014.1 |
| 20260506010720 | 62 | 182 | 2.6 | 5.2 | 0.00 | 0.00 | 0.00 | 66 | 1014.1 |
| 20260506010217 | 62 | 195 | 2.6 | 2.6 | 0.00 | 0.00 | 0.00 | 66 | 1014.1 |
| 20260506005714 | 62 | 150 | 0.9 | 1.7 | 0.00 | 0.00 | 0.00 | 67 | 1013.9 |
| 20260506005210 | 62 | 164 | 2.6 | 5.2 | 0.00 | 0.00 | 0.00 | 67 | 1014.1 |
| 20260506004706 | 62 | 143 | 0.9 | 0.9 | 0.00 | 0.00 | 0.00 | 67 | 1014.0 |
| 20260506004204 | 62 | 180 | 1.7 | 1.7 | 0.00 | 0.00 | 0.00 | 67 | 1013.8 |
| 20260506003700 | 62 | 231 | 3.5 | 5.2 | 0.00 | 0.00 | 0.00 | 67 | 1013.8 |
| 20260506003157 | 62 | 169 | 3.5 | 5.2 | 0.00 | 0.00 | 0.00 | 68 | 1013.8 |
| 20260506002652 | 62 | 140 | 1.7 | 2.6 | 0.00 | 0.00 | 0.00 | 67 | 1013.7 |
| 20260506002149 | 62 | 165 | 0.9 | 3.5 | 0.00 | 0.00 | 0.00 | 67 | 1013.7 |
| 20260506001644 | 62 | 176 | 2.6 | 5.2 | 0.00 | 0.00 | 0.00 | 67 | 1013.5 |
| 20260506001142 | 63 | 138 | 1.7 | 1.7 | 0.00 | 0.00 | 0.00 | 66 | 1013.5 |
| 20260506000639 | 63 | 183 | 7.0 | 8.7 | 0.00 | 0.00 | 0.00 | 66 | 1013.4 |
| 20260506000136 | 63 | 138 | 1.7 | 1.7 | 0.00 | 0.00 | 0.00 | 66 | 1013.3 |
| 20260505235634 | 63 | 143 | 0.9 | 1.7 | 0.00 | 0.00 | 0.00 | 66 | 1013.2 |
| 20260505235131 | 63 | 173 | 5.2 | 7.0 | 0.00 | 0.00 | 0.00 | 65 | 1013.0 |
| 20260505234628 | 64 | 190 | 3.5 | 5.2 | 0.00 | 0.00 | 0.00 | 65 | 1013.1 |
| 20260505234125 | 64 | 142 | 4.3 | 7.0 | 0.00 | 0.00 | 0.00 | 64 | 1013.2 |
| 20260505233622 | 64 | 187 | 1.7 | 2.6 | 0.00 | 0.00 | 0.00 | 64 | 1012.9 |
| 20260505233120 | 65 | 199 | 2.6 | 2.6 | 0.00 | 0.00 | 0.00 | 63 | 1012.9 |
| 20260505232617 | 65 | 205 | 4.3 | 6.1 | 0.00 | 0.00 | 0.00 | 62 | 1012.8 |